www.pogodaiklimat.ru

Погода и климат >> Архив погоды >> Бразилия >> Urubici


ПОГОДА в Urubici

  • Прогноз погоды в Urubici
  • Монитор погоды в Urubici
  • Климат города

АРХИВ ПОГОДЫ в Urubici

Время (UTC), дата Ветер
(напр.,м/с)
 
Видим.   Явления Облачность Т
(С)
Тd
(С)
f
(%)
Тe
(С)
Тes
(С)
Комфортность P
(гПа)
Po
(гПа)
Тmin
(С)
Tmax
(С)
R
(мм)
R24
(мм)
S
(см)
05 16.01 З 4
{6}
н/о н/о +14.5 -29.8 3 +14 +14 1015.4 820.8
04 16.01 З 5
{7}
н/о н/о +14.4 -29.7 3 +13 +13 1015.5 820.8 0.2
06 16.01 СЗ 2
{5}
н/о н/о +14.4 -29.9 3 +15 +15 1015.5 820.8
07 16.01 СЗ 3
{4}
н/о н/о +14.2 -29.9 3 +14 +14 1015.6 820.8
08 16.01 СЗ 3
{4}
н/о н/о +14.3 -29.8 3 +14 +14 1015.9 821.1
09 16.01 СЗ 3
{4}
н/о н/о +14.5 -29.7 3 +14 +14 1016.6 821.8
11 16.01 СЗ 3
{4}
н/о н/о +15.9 -27.9 3 +16 +16 1017.2 823.1
10 16.01 СЗ 3
{5}
н/о н/о +14.8 -29.2 3 +14 +14 1017.0 822.3
12 16.01 СЗ 1
{4}
н/о н/о +16.4 -27.9 3 +17 +17 1017.3 823.5
13 16.01 С 2
{3}
н/о н/о +17.0 -27.2 3 +18 +18 1017.1 823.7
14 16.01 З 2
{3}
н/о н/о +17.8 -27.0 3 +19 +19 1016.6 823.8
15 16.01 Ю 3
{4}
н/о н/о +16.4 -28.8 3 +17 +17 1017.7 823.8 2
17 16.01 Ю 3
{4}
н/о н/о +15.6 -29.6 3 +16 +16 1017.9 823.5 0.4
16 16.01 Ю 3
{4}
н/о н/о +16.6 -28.9 3 +17 +17 1016.9 823.3 2
18 16.01 Ю 3
{4}
н/о н/о +15.6 -29.3 3 +16 +16 1017.4 823.1 3
19 16.01 Ю 5
{7}
н/о н/о +15.0 -30.0 3 +14 +14 1016.6 822.1 3
20 16.01 Ю 3
{7}
н/о н/о +14.7 -30.2 3 +14 +14 1017.2 822.4 4
21 16.01 Ю 4
{7}
н/о н/о +14.5 -30.4 3 +14 +14 1017.2 822.3 4
23 16.01 ЮВ 4
{6}
н/о н/о +13.8 -30.9 3 +13 +13 1018.8 823.1 2
22 16.01 Ю 4
{7}
н/о н/о +14.3 -30.5 3 +14 +14 1018.0 822.8 3
00 17.01 ЮВ 4
{5}
н/о н/о +13.3 -31.2 3 +12 +12 1019.9 823.7 1
01 17.01 Ю 3
{5}
н/о н/о +13.3 -31.2 3 +13 +13 1020.3 824.0 0.4
02 17.01 ЮВ 3
{5}
н/о н/о +13.7 -30.9 3 +13 +13 1019.8 823.9 0.4
03 17.01 Ю 3
{5}
н/о н/о +13.5 -31.1 3 +13 +13 1019.5 823.5 0.4
05 17.01 ЮВ 2
{4}
н/о н/о +14.0 -30.7 3 +14 +14 1018.2 822.8 0.2
04 17.01 В 3
{5}
н/о н/о +14.2 -30.3 3 +14 +14 1018.8 823.4 0.2
06 17.01 СВ 2
{3}
н/о н/о +14.1 -30.6 3 +14 +14 1017.5 822.3 0.2
07 17.01 С 3
{4}
н/о н/о +14.5 -29.6 3 +14 +14 1017.1 822.2 0.2
08 17.01 С 3
{4}
н/о н/о +14.7 -30.2 3 +15 +15 1017.1 822.3
09 17.01 С 3
{5}
н/о н/о +14.7 -29.3 3 +14 +14 1017.1 822.3
11 17.01 С 4
{6}
н/о н/о +14.9 -29.1 3 +14 +14 1017.7 822.9
10 17.01 С 4
{6}
н/о н/о +14.9 -28.5 3 +14 +14 1017.4 822.7
12 17.01 С 4
{6}
н/о н/о +15.0 -28.4 3 +14 +14 1018.0 823.2
13 17.01 С 4
{6}
н/о н/о +16.4 -26.8 4 +16 +16 1016.8 823.1
14 17.01 С 4
{6}
н/о н/о +18.9 -24.3 4 +19 +19 1015.1 823.2
15 17.01 С 3
{5}
н/о н/о +19.1 -24.8 4 +19 +19 1014.9 823.2
17 17.01 Ю 1
{4}
н/о н/о +17.4 -28.4 3 +19 +19 1015.1 822.3
16 17.01 С 2
{5}
н/о н/о +19.0 -25.6 3 +19 +19 1014.7 822.9 0.2
18 17.01 Ю 2
{3}
н/о н/о +17.2 -28.5 3 +18 +18 1014.5 821.7
19 17.01 В 2
{4}
н/о н/о +16.8 -28.8 3 +17 +17 1014.2 821.2 3
20 17.01 ЮВ 3
{4}
н/о н/о +16.3 -29.1 3 +16 +16 1013.4 820.3 4
21 17.01 СВ 2
{4}
н/о н/о +16.3 -29.2 3 +17 +17 1013.8 820.6 0.4
23 17.01 СВ 3
{4}
н/о н/о +15.7 -29.6 3 +16 +16 1015.2 821.4
22 17.01 СВ 2
{4}
н/о н/о +15.9 -29.4 3 +16 +16 1014.7 821.1
00 18.01 СЗ 4
{5}
н/о н/о +15.7 -29.5 3 +15 +15 1016.1 822.1 1
01 18.01 СЗ 4
{5}
н/о н/о +15.2 -29.9 3 +15 +15 1016.2 821.9 5
02 18.01 С 3
{5}
н/о н/о +14.8 -30.2 3 +15 +15 1015.9 821.4 2
03 18.01 СЗ 6
{7}
н/о н/о +14.9 -30.1 3 +14 +14 1015.2 820.9 0.2
05 18.01 СЗ 6
{7}
н/о н/о +15.5 -29.4 3 +14 +14 1013.8 820.1 0.4
04 18.01 СЗ 5
{8}
н/о н/о +15.4 -29.8 3 +14 +14 1014.1 820.3
06 18.01 СЗ 6
{9}
н/о н/о +15.4 -29.8 3 +14 +14 1013.0 819.4 0.2
07 18.01 СЗ 7
{10}
н/о н/о +15.3 -29.8 3 +14 +14 1012.1 818.6 0.4
08 18.01 СЗ 9
{11}
н/о н/о +15.2 -29.9 3 +13 +13 1011.5 818.1 0.2
09 18.01 СЗ 8
{11}
н/о н/о +15.3 -29.8 3 +14 +14 1012.2 818.7 0.2
11 18.01 СЗ 8
{12}
н/о н/о +15.2 -29.9 3 +14 +14 1012.4 818.8
10 18.01 СЗ 8
{11}
н/о н/о +15.4 -29.8 3 +14 +14 1012.4 818.9 0.2
12 18.01 СЗ 9
{12}
н/о н/о +15.8 -29.5 3 +14 +14 1012.4 819.2
13 18.01 СЗ 8
{13}
н/о н/о +16.6 -28.9 3 +15 +15 1012.0 819.3
14 18.01 З 7
{11}
н/о н/о +16.9 -28.7 3 +16 +16 1012.0 819.5
15 18.01 З 6
{12}
н/о н/о +17.9 -28.0 3 +17 +17 1011.3 819.5
20 18.01 ЮЗ 5
{8}
н/о н/о +16.6 -29.0 3 +16 +16 1011.7 819.1
19 18.01 ЮЗ 4
{7}
н/о н/о +16.9 -28.7 3 +17 +17 1012.0 819.5
21 18.01 ЮЗ 4
{8}
н/о н/о +16.8 -28.8 3 +16 +16 1011.9 819.4
22 18.01 ЮЗ 4
{8}
н/о н/о +15.8 -29.5 3 +15 +15 1013.7 820.2
23 18.01 ЮЗ 4
{7}
н/о н/о +15.2 -29.9 3 +15 +15 1014.4 820.4 0.2
02 19.01 Ю 3
{7}
н/о н/о +14.8 -30.2 3 +15 +15 1015.9 821.4
01 19.01 Ю 5
{8}
н/о н/о +14.8 -30.1 3 +14 +14 1015.7 821.2
03 19.01 Ю 2
{6}
н/о н/о +14.6 -30.3 3 +15 +15 1015.9 821.3 0.4
04 19.01 Ю 2
{3}
н/о н/о +14.6 -30.3 3 +15 +15 1015.9 821.3
05 19.01 ЮЗ 1
{3}
н/о н/о +14.0 -30.7 3 +15 +15 1016.3 821.2 0.2
06 19.01 З 1
{3}
н/о н/о +14.1 -30.7 3 +15 +15 1016.1 821.1
08 19.01 З 2
{3}
н/о н/о +13.6 -31.0 3 +14 +14 1016.8 821.4
09 19.01 ЮЗ 2
{3}
н/о н/о +13.4 -31.1 3 +14 +14 1017.3 821.7
10 19.01 ЮЗ 1
{3}
н/о н/о +13.7 -30.9 3 +15 +15 1017.6 822.1
11 19.01 ЮЗ 1
{2}
н/о н/о +14.1 -30.6 3 +15 +15 1017.9 822.6
12 19.01 З 1
{3}
н/о н/о +15.1 -29.7 3 +16 +16 1017.3 822.7
13 19.01 ЮЗ 1
{2}
н/о н/о +15.7 -28.9 3 +17 +17 1017.3 823.1
14 19.01 З 1
{3}
н/о н/о +17.4 -27.5 3 +19 +19 1016.2 823.2
15 19.01 Ю 1
{3}
н/о н/о +16.2 -29.2 3 +17 +17 1017.2 823.3
16 19.01 Ю 1
{2}
н/о н/о +14.8 -30.2 3 +16 +16 1018.3 823.3 0.2
17 19.01 Ю 2
{4}
н/о н/о +14.2 -30.6 3 +14 +14 1018.3 823.0
18 19.01 Ю 3
{5}
н/о н/о +13.9 -30.8 3 +14 +14 1018.4 822.9
19 19.01 Ю 2
{4}
н/о н/о +13.7 -30.9 3 +14 +14 1018.2 822.6
20 19.01 Ю 3
{5}
н/о н/о +13.7 -30.9 3 +13 +13 1017.7 822.2
21 19.01 Ю 3
{6}
н/о н/о +13.7 -30.9 3 +13 +13 1018.1 822.5 0.2
22 19.01 Ю 4
{7}
н/о н/о +13.5 -31.0 3 +13 +13 1018.6 822.8 1
23 19.01 Ю 3
{6}
н/о н/о +13.4 -31.1 3 +13 +13 1019.2 823.2 0.6
00 20.01 Ю 3
{4}
н/о н/о +13.1 -31.3 3 +13 +13 1019.7 823.4 1
01 20.01 ЮВ 2
{4}
н/о н/о +13.0 -31.4 3 +13 +13 1020.4 823.9 1
02 20.01 В 3
{4}
н/о н/о +12.5 -31.7 3 +12 +12 1020.6 823.8 0.4
03 20.01 В 1
{3}
н/о н/о +12.1 -32.0 3 +13 +13 1020.8 823.7
04 20.01 С 1
{2}
н/о н/о +12.1 -32.0 3 +13 +13 1020.2 823.2
05 20.01 С 2
{3}
н/о н/о +12.6 -31.7 3 +12 +12 1019.2 822.7
06 20.01 С 2
{3}
н/о н/о +13.0 -31.4 3 +13 +13 1018.4 822.3
07 20.01 СЗ 3
{3}
н/о н/о +12.4 -31.8 3 +12 +12 1018.7 822.2
08 20.01 СЗ 3
{4}
н/о н/о +12.7 -31.6 3 +12 +12 1019.1 822.7 0.2
09 20.01 С 2
{3}
н/о н/о +13.4 -30.9 3 +14 +14 1018.9 823.0
10 20.01 С 2
{3}
н/о н/о +14.2 -30.2 3 +14 +14 1018.7 823.3
11 20.01 С 3
{3}
н/о н/о +14.3 -30.5 3 +14 +14 1018.9 823.5
12 20.01 С 2
{3}
н/о н/о +16.3 -28.3 3 +17 +17 1017.6 823.7
13 20.01 СВ 1
{3}
н/о н/о +17.0 -27.7 3 +18 +18 1017.4 823.9
14 20.01 СВ 2
{3}
н/о н/о +17.9 -26.9 3 +19 +19 1016.7 823.9
15 20.01 ЮВ 1
{4}
н/о н/о +16.9 -28.7 3 +18 +18 1017.4 823.9
16 20.01 Ю 1
{2}
н/о н/о +17.2 -27.9 3 +18 +18 1017.5 824.1
17 20.01 ЮВ 1
{3}
н/о н/о +17.1 -28.6 3 +18 +18 1017.3 823.9
18 20.01 В 2
{3}
н/о н/о +17.1 -28.6 3 +18 +18 1016.9 823.6
19 20.01 СВ 1
{3}
н/о н/о +16.2 -29.2 3 +17 +17 1016.8 823.0
20 20.01 В 2
{3}
н/о н/о +15.3 -29.8 3 +16 +16 1016.8 822.4
21 20.01 В 2
{3}
н/о н/о +14.9 -30.1 3 +15 +15 1016.9 822.3
22 20.01 ЮВ 2
{3}
н/о н/о +14.2 -30.6 3 +15 +15 1017.7 822.5
23 20.01 СВ 2
{3}
н/о н/о +14.1 -30.7 3 +15 +15 1018.3 822.9
00 21.01 СВ 3
{4}
н/о н/о +13.6 -31.0 3 +13 +13 1018.9 823.1
01 21.01
{5}
н/о н/о +12.4 -31.8 3 1020.4 823.6
03 21.01 С 5
{7}
н/о н/о +12.1 -32.0 3 +11 +11 1020.1 823.1
05 21.01 СЗ 7
{9}
н/о н/о +10.7 -33.0 3 +8 +8 1019.6 821.9
04 21.01 СЗ 6
{8}
н/о н/о +11.1 -32.7 3 +9 +9 1020.5 822.8
06 21.01 СЗ 6
{9}
н/о н/о +11.4 -32.5 3 +9 +9 1018.7 821.6
07 21.01 СЗ 6
{8}
н/о н/о +13.6 -31.0 3 +12 +12 1016.9 821.5
08 21.01 СЗ 6
{8}
н/о н/о +12.5 -31.7 3 +11 +11 1017.3 821.1
09 21.01 СЗ 7
{9}
н/о н/о +12.2 -31.9 3 +10 +10 1017.9 821.4
11 21.01 С 5
{9}
н/о н/о +13.3 -31.2 3 +12 +12 1017.4 821.7
10 21.01 СЗ 6
{9}
н/о н/о +13.3 -31.2 3 +12 +12 1017.2 821.5 0.2
12 21.01 С 6
{8}
н/о н/о +13.8 -30.8 3 +12 +12 1017.0 821.7
13 21.01 С 5
{8}
н/о н/о +14.5 -30.4 3 +13 +13 1016.5 821.7
14 21.01 СЗ 5
{9}
н/о н/о +14.8 -30.2 3 +14 +14 1016.1 821.6
15 21.01 С 4
{7}
н/о н/о +14.8 -30.2 3 +14 +14 1015.8 821.3
17 21.01 СЗ 6
{10}
н/о н/о +14.9 -30.1 3 +14 +14 1015.1 820.8
16 21.01 СЗ 6
{10}
н/о н/о +14.9 -30.1 3 +14 +14 1015.0 820.7
18 21.01 СЗ 5
{9}
н/о н/о +15.0 -29.7 3 +14 +14 1014.6 820.5 0.8
19 21.01 СЗ 7
{9}
н/о н/о +15.1 -29.8 3 +14 +14 1013.7 819.8 0.4
20 21.01 СЗ 6
{9}
н/о н/о +14.9 -30.1 3 +14 +14 1013.6 819.6
21 21.01 СЗ 5
{9}
н/о н/о +14.7 -30.1 3 +14 +14 1014.0 819.8
23 21.01 З 3
{5}
н/о н/о +14.6 -30.3 3 +14 +14 1015.1 820.6
22 21.01 З 3
{7}
н/о н/о +14.7 -30.2 3 +15 +15 1014.4 820.1
00 22.01 З 4
{6}
н/о н/о +14.6 -29.9 3 +14 +14 1015.6 821.0
01 22.01 З 3
{5}
н/о н/о +14.2 -30.6 3 +14 +14 1016.4 821.4 1
02 22.01 З 3
{6}
н/о н/о +13.9 -30.8 3 +13 +13 1015.8 820.8 9
03 22.01 СЗ 6
{8}
н/о н/о +13.5 -31.0 3 +12 +12 1015.0 819.9 0.4
05 22.01 СЗ 5
{8}
н/о н/о +13.4 -31.1 3 +12 +12 1012.7 818.0
04 22.01 СЗ 6
{8}
н/о н/о +13.5 -31.1 3 +12 +12 1013.5 818.7
06 22.01 З 3
{7}
н/о н/о +13.6 -31.0 3 +13 +13 1012.5 817.9
07 22.01 З 3
{4}
н/о н/о +15.2 -29.4 3 +15 +15 1011.3 817.9
08 22.01 СЗ 7
{9}
н/о н/о +13.6 -31.0 3 +12 +12 1013.0 818.3 0.4
09 22.01 СЗ 6
{9}
н/о н/о +13.3 -31.2 3 +12 +12 1013.2 818.3 0.2
11 22.01 СЗ 6
{7}
н/о н/о +16.5 -28.0 3 +16 +16 1011.9 819.2
10 22.01 З 6
{7}
н/о н/о +15.0 -29.5 3 +14 +14 1012.5 818.8
12 22.01 СЗ 7
{8}
н/о н/о +16.0 -28.3 3 +15 +15 1011.9 818.9
13 22.01 СЗ 7
{10}
н/о н/о +18.0 -26.1 4 +17 +17 1010.4 818.9
14 22.01 СЗ 7
{11}
н/о н/о +18.6 -26.0 3 +18 +18 1009.6 818.6 0.2
15 22.01 СЗ 6
{10}
н/о н/о +18.2 -26.4 3 +18 +18 1009.9 818.6
16 22.01 СЗ 5
{9}
н/о н/о +20.0 -24.6 4 +19 +19 1008.6 818.6
18 22.01 Ю 3
{5}
н/о н/о +15.3 -29.8 3 +15 +15 1011.8 818.4
19 22.01 ЮВ 2
{8}
н/о н/о +14.2 -30.6 3 +14 +14 1013.0 818.7 9
20 22.01 З 3
{6}
н/о н/о +14.4 -30.4 3 +14 +14 1013.5 819.2 30
21 22.01 З 3
{6}
н/о н/о +13.8 -30.8 3 +13 +13 1013.1 818.5 4
22 22.01 З 6
{8}
н/о н/о +14.0 -30.7 3 +13 +13 1013.0 818.6 0.4
23 22.01 З 5
{8}
н/о н/о +14.5 -30.3 3 +14 +14 1012.5 818.5
01 23.01 З 5
{8}
н/о н/о +16.0 -29.3 3 +15 +15 1012.2 819.1
02 23.01 З 6
{8}
н/о н/о +16.2 -29.2 3 +15 +15 1012.4 819.4

 

Местоположение метеостанции Urubici (Бразилия): широта -28.13 долгота -49.48 высота над уровнем моря 1812 м.

В архиве по умолчанию представлена погода в Urubici за последнюю неделю. Архивные данные за месяц целиком и за предыдущие месяцы, начиная с января 2011 года, Вы можете получить, выбрав интересующий диапазон дат из раскрывающегося списка и нажав кнопку "Ввод!".

Внимание! Время в таблицах - всемирное. Для получения местного времени необходимо прибавить поправку, которая в Urubici равна -3 ч.

Смотрите также архив погоды в соседних городах и на ближайших метеорологических станциях:

Погода в Sao Joaquim (Бразилия) (47 км)
Погода в Urussanga (Бразилия) (47 км)
Погода в Ituporanga (Бразилия) (81 км)
Погода в Santa Marta (Бразилия) (83 км)
Погода в Ararangua (Бразилия) (89 км)
Погода в Sao Jose dos Ausente (Бразилия) (89 км)
Погода в Florianopolis - Sao Jose (Бразилия) (103 км)
Погода в Florianopolis (Бразилия) (105 км)
Погода в Bom Jesus (Бразилия) (110 км)
Погода в Torres (Бразилия) (136 км)

Пояснения к столбцам:

Ветер - указаны скорость ветра в м/с - средняя за 10 мин, порывы в срок и между сроками (в фигурных скобках) и направление, откуда дует ветер: С - северный, СВ - северо-восточный, В - восточный, ЮВ - юго-восточный, Ю - южный, ЮЗ - юго-западный, З - западный, СЗ - северо-западный.
Видимость - горизонтальная дальность видимости в метрах или километрах. При видимости от 1 до 10 км при отсутствии осадков обычно наблюдается дымка, при ухудшении видимости до 1 км и менее - туман. В сухую погоду видимость может ухудшаться дымом, пылью или мглою.
Явления - указаны атмосферные явления, наблюдавшиеся в срок или в последний час перед сроком; фигурными скобками обозначены явления, наблюдавшиеся между сроками (за 1-3 часа до срока); квадратными скобками обозначены град или гололедные отложения с указанием их диаметра в мм.
Облачность - указаны через наклонную черту общая и нижняя облачность в баллах и высота нижней границы облаков в метрах; квадратными скобками обозначены формы облаков: Ci - перистые, Cs - перисто-слоистые, Cc - перисто-кучевые, Ac - высококучевые, As - высокослоистые, Sc - слоисто-кучевые, Ns - слоисто-дождевые, Cu - кучевые, Cb - кучево-дождевые. Подробнее классификацию облаков см. в Атласе облаков (PDF).
T - Температура воздуха - температура, измеренная на высоте 2 м над землей.
Td - Температура точки росы - температура, при понижении до которой содержащийся в воздухе водяной пар достигнет насыщения.
f - Относительная влажность воздуха - влажноcть воздуха, измеренная на высоте 2 м над землей.
Te - Эффективная температура - температура, которую ощущает одетый по сезону человек в тени. Характеристика душности погоды. При расчете учитывается влияние влажности воздуха и скорости ветра на теплоощущения человека.
Tes - Эффективная температура на солнце - температура, которую ощущает человек, с поправкой на солнечный нагрев. Характеристика знойности погоды. Зависит от высоты солнца над горизонтом, облачности и скорости ветра. Ночью, в пасмурную погоду, а также при ветре 12 м/с и более поправка равна нулю.
P - Атмосферное давление - приведенное к уровню моря атмосферное давление.
Po - Атмосферное давление - измеренное на уровне метеостанции атмосферное давление.
Tmin - Минимальная температура - минимум температуры воздуха на высоте 2 м над землей.
Tmax - Максимальная температура - максимум температуры воздуха на высоте 2 м над землей.
R - Количество осадков - Количество выпавших осадков за период времени, мм. При наведении курсора мыши на число - период времени, за который выпало указанное количество осадков.
R24 - Количество осадков - Количество выпавших осадков за 24 часа, мм.
S - Снежный покров - Высота снежного покрова, см. При наведении курсора мыши на число - состояние снежного покрова и степень покрытия местности в баллах.